| time (UTC) | temp F | wind direction | speed MPH | gust MPH | rain 1hr in | rain 24hr in | rain mn in | humidity % | barometer mb |
| 20260502164042 | 53 | 225 | 0.0 | 1.0 | 0.00 | 0.00 | 0.00 | 80 | 1010.2 |
| 20260502163542 | 54 | 166 | 0.0 | 2.0 | 0.00 | 0.00 | 0.00 | 79 | 1010.2 |
| 20260502163042 | 54 | 214 | 0.0 | 3.0 | 0.00 | 0.00 | 0.00 | 79 | 1010.2 |
| 20260502162542 | 54 | 242 | 0.0 | 3.0 | 0.00 | 0.00 | 0.00 | 79 | 1010.1 |
| 20260502162042 | 54 | 195 | 0.0 | 3.0 | 0.00 | 0.00 | 0.00 | 78 | 1010.3 |
| 20260502161541 | 54 | 205 | 0.0 | 3.0 | 0.00 | 0.00 | 0.00 | 79 | 1010.2 |
| 20260502161042 | 54 | 191 | 0.0 | 4.0 | 0.00 | 0.00 | 0.00 | 80 | 1010.2 |
| 20260502160541 | 54 | 201 | 1.0 | 4.0 | 0.00 | 0.00 | 0.00 | 80 | 1010.2 |
| 20260502152042 | 56 | 214 | 0.0 | 2.0 | 0.00 | 0.00 | 0.00 | 76 | 1010.5 |
| 20260502151546 | 56 | 195 | 0.0 | 3.0 | 0.00 | 0.00 | 0.00 | 75 | 1010.6 |
| 20260502151039 | 56 | 202 | 0.0 | 3.0 | 0.00 | 0.00 | 0.00 | 74 | 1010.5 |
| 20260502150539 | 57 | 185 | 0.0 | 0.0 | 0.00 | 0.00 | 0.00 | 74 | 1010.9 |
| 20260502130525 | 53 | 17 | 0.0 | 3.0 | 0.00 | 0.00 | 0.00 | 79 | 1011.3 |
| 20260502123522 | 52 | 197 | 0.0 | 1.0 | 0.00 | 0.00 | 0.00 | 81 | 1011.1 |
| 20260502123022 | 51 | 197 | 0.0 | 2.0 | 0.00 | 0.00 | 0.00 | 80 | 1011.2 |
| 20260502122521 | 51 | 199 | 0.0 | 2.0 | 0.00 | 0.00 | 0.00 | 81 | 1011.3 |
| 20260502122021 | 51 | 190 | 0.0 | 2.0 | 0.00 | 0.00 | 0.00 | 81 | 1011.2 |
| 20260502121523 | 51 | 191 | 0.0 | 3.0 | 0.00 | 0.00 | 0.00 | 81 | 1011.0 |
| 20260502121020 | 51 | 172 | 0.0 | 3.0 | 0.00 | 0.00 | 0.00 | 81 | 1010.9 |
| 20260502120519 | 51 | 207 | 0.0 | 2.0 | 0.00 | 0.00 | 0.00 | 81 | 1010.9 |
| 20260502115520 | 51 | 189 | 0.0 | 4.0 | 0.00 | 0.00 | 0.00 | 81 | 1010.9 |
| 20260502115019 | 50 | 183 | 1.0 | 3.0 | 0.00 | 0.00 | 0.00 | 81 | 1010.9 |
| 20260502114517 | 50 | 202 | 0.0 | 3.0 | 0.00 | 0.00 | 0.00 | 81 | 1011.0 |
| 20260502114016 | 50 | 199 | 0.0 | 3.0 | 0.00 | 0.00 | 0.00 | 80 | 1010.9 |
| 20260502113516 | 50 | 185 | 0.0 | 2.0 | 0.00 | 0.00 | 0.00 | 81 | 1010.8 |
| 20260502113018 | 50 | 208 | 0.0 | 3.0 | 0.00 | 0.00 | 0.00 | 81 | 1010.8 |
| 20260502112515 | 50 | 202 | 0.0 | 3.0 | 0.00 | 0.00 | 0.00 | 81 | 1010.7 |
| 20260502112014 | 50 | 196 | 0.0 | 2.0 | 0.00 | 0.00 | 0.00 | 81 | 1010.7 |
| 20260502111513 | 50 | 197 | 0.0 | 2.0 | 0.00 | 0.00 | 0.00 | 81 | 1010.6 |
| 20260502111013 | 50 | 202 | 0.0 | 2.0 | 0.00 | 0.00 | 0.00 | 81 | 1010.6 |
| 20260502110513 | 49 | 195 | 0.0 | 2.0 | 0.00 | 0.00 | 0.00 | 81 | 1010.6 |
| 20260502110013 | 49 | 190 | 0.0 | 2.0 | 0.00 | 0.00 | 0.00 | 81 | 1010.6 |
| 20260502105512 | 49 | 196 | 0.0 | 2.0 | 0.00 | 0.00 | 0.00 | 80 | 1010.6 |
| 20260502105011 | 49 | 196 | 0.0 | 2.0 | 0.00 | 0.00 | 0.00 | 80 | 1010.7 |
| 20260502104510 | 49 | 202 | 0.0 | 0.0 | 0.00 | 0.00 | 0.00 | 80 | 1010.5 |
| 20260502104010 | 49 | 197 | 0.0 | 0.0 | 0.00 | 0.00 | 0.00 | 80 | 1010.5 |
| 20260502103510 | 49 | 199 | 0.0 | 0.0 | 0.00 | 0.00 | 0.00 | 80 | 1010.4 |
| 20260502103010 | 49 | 199 | 0.0 | 0.0 | 0.00 | 0.00 | 0.00 | 80 | 1010.4 |
| 20260502102510 | 49 | 195 | 0.0 | 0.0 | 0.00 | 0.00 | 0.00 | 80 | 1010.3 |
| 20260502102010 | 49 | 193 | 0.0 | 0.0 | 0.00 | 0.00 | 0.00 | 80 | 1010.2 |
| 20260502101511 | 49 | 193 | 0.0 | 0.0 | 0.00 | 0.00 | 0.00 | 79 | 1010.3 |
| 20260502101009 | 49 | 193 | 0.0 | 0.0 | 0.00 | 0.00 | 0.00 | 79 | 1010.2 |
| 20260502100509 | 49 | 193 | 0.0 | 0.0 | 0.00 | 0.00 | 0.00 | 79 | 1010.2 |
| 20260502091506 | 49 | 191 | 0.0 | 0.0 | 0.00 | 0.00 | 0.00 | 77 | 1010.1 |
| 20260502091006 | 49 | 192 | 0.0 | 0.0 | 0.00 | 0.00 | 0.00 | 77 | 1010.1 |
| 20260502090505 | 49 | 189 | 0.0 | 0.0 | 0.00 | 0.00 | 0.00 | 78 | 1010.0 |
| 20260502071057 | 50 | 195 | 0.0 | 3.0 | 0.00 | 0.00 | 0.00 | 73 | 1009.9 |
| 20260502070556 | 50 | 188 | 0.0 | 2.0 | 0.00 | 0.00 | 0.00 | 73 | 1009.9 |
| 20260502070055 | 50 | 184 | 0.0 | 0.0 | 0.00 | 0.00 | 0.00 | 73 | 1010.0 |
| 20260502065554 | 50 | 184 | 0.0 | 0.0 | 0.00 | 0.00 | 0.00 | 72 | 1010.0 |
| 20260502065055 | 51 | 184 | 0.0 | 0.0 | 0.00 | 0.00 | 0.00 | 71 | 1009.9 |
| 20260502064552 | 51 | 184 | 0.0 | 1.0 | 0.00 | 0.00 | 0.00 | 71 | 1010.0 |
| 20260502064051 | 51 | 184 | 0.0 | 1.0 | 0.00 | 0.00 | 0.00 | 70 | 1010.0 |
| 20260502063550 | 52 | 183 | 0.0 | 0.0 | 0.00 | 0.00 | 0.00 | 70 | 1010.1 |
| 20260502063051 | 52 | 183 | 0.0 | 1.0 | 0.00 | 0.00 | 0.00 | 69 | 1010.1 |
| 20260502062549 | 52 | 183 | 0.0 | 1.0 | 0.00 | 0.00 | 0.00 | 68 | 1010.2 |
| 20260502062050 | 52 | 178 | 0.0 | 3.0 | 0.00 | 0.00 | 0.00 | 68 | 1010.1 |
| 20260502061549 | 52 | 178 | 0.0 | 3.0 | 0.00 | 0.00 | 0.00 | 68 | 1010.2 |
| 20260502061048 | 52 | 190 | 0.0 | 2.0 | 0.00 | 0.00 | 0.00 | 69 | 1010.0 |
| 20260502060647 | 52 | 191 | 0.0 | 2.0 | 0.00 | 0.00 | 0.00 | 68 | 1010.1 |
| 20260502060047 | 52 | 192 | 0.0 | 2.0 | 0.00 | 0.00 | 0.00 | 68 | 1010.1 |
| 20260502055547 | 52 | 189 | 0.0 | 2.0 | 0.00 | 0.00 | 0.00 | 67 | 1010.2 |
| 20260502055046 | 52 | 191 | 0.0 | 4.0 | 0.00 | 0.00 | 0.00 | 67 | 1010.2 |
| 20260502054547 | 52 | 192 | 0.0 | 4.0 | 0.00 | 0.00 | 0.00 | 66 | 1010.2 |
| 20260502054046 | 52 | 195 | 1.0 | 4.0 | 0.00 | 0.00 | 0.00 | 66 | 1010.3 |
| 20260502053544 | 52 | 196 | 1.0 | 3.0 | 0.00 | 0.00 | 0.00 | 67 | 1010.4 |
| 20260502053052 | 52 | 190 | 0.0 | 2.0 | 0.00 | 0.00 | 0.00 | 67 | 1010.4 |
| 20260502052544 | 52 | 188 | 0.0 | 3.0 | 0.00 | 0.00 | 0.00 | 66 | 1010.3 |
| 20260502052043 | 52 | 193 | 0.0 | 3.0 | 0.00 | 0.00 | 0.00 | 67 | 1010.3 |
| 20260502051555 | 52 | 192 | 0.0 | 1.0 | 0.00 | 0.00 | 0.00 | 67 | 1010.3 |
| 20260502051042 | 51 | 184 | 0.0 | 0.0 | 0.00 | 0.00 | 0.00 | 67 | 1010.3 |
| 20260502050544 | 52 | 171 | 0.0 | 1.0 | 0.00 | 0.00 | 0.00 | 68 | 1010.2 |
| 20260502050054 | 52 | 190 | 0.0 | 1.0 | 0.00 | 0.00 | 0.00 | 68 | 1010.3 |
| 20260502045544 | 52 | 195 | 0.0 | 1.0 | 0.00 | 0.00 | 0.00 | 69 | 1010.3 |
| 20260502045040 | 52 | 177 | 0.0 | 4.0 | 0.00 | 0.00 | 0.00 | 68 | 1010.4 |
| 20260502044541 | 52 | 197 | 0.0 | 4.0 | 0.00 | 0.00 | 0.00 | 68 | 1010.4 |
| 20260502044039 | 52 | 194 | 0.0 | 0.0 | 0.00 | 0.00 | 0.00 | 68 | 1010.4 |
| 20260502043537 | 52 | 194 | 0.0 | 3.0 | 0.00 | 0.00 | 0.00 | 68 | 1010.4 |
| 20260502043038 | 52 | 199 | 0.0 | 3.0 | 0.00 | 0.00 | 0.00 | 68 | 1010.4 |
| 20260502042539 | 52 | 213 | 1.0 | 5.0 | 0.00 | 0.00 | 0.00 | 67 | 1010.5 |
| 20260502042036 | 52 | 189 | 0.0 | 5.0 | 0.00 | 0.00 | 0.00 | 68 | 1010.4 |
| 20260502041538 | 52 | 171 | 0.0 | 3.0 | 0.00 | 0.00 | 0.00 | 68 | 1010.4 |
| 20260502041034 | 52 | 194 | 0.0 | 3.0 | 0.00 | 0.00 | 0.00 | 68 | 1010.5 |
| 20260502040535 | 52 | 190 | 0.0 | 3.0 | 0.00 | 0.00 | 0.00 | 68 | 1010.5 |
| 20260502040033 | 52 | 174 | 1.0 | 3.0 | 0.00 | 0.00 | 0.00 | 68 | 1010.5 |
| 20260502035533 | 52 | 174 | 1.0 | 4.0 | 0.00 | 0.00 | 0.00 | 68 | 1010.5 |
| 20260502035033 | 52 | 191 | 0.0 | 4.0 | 0.00 | 0.00 | 0.00 | 67 | 1010.5 |
| 20260502034536 | 52 | 203 | 0.0 | 4.0 | 0.00 | 0.00 | 0.00 | 68 | 1010.5 |
| 20260502034033 | 53 | 185 | 1.0 | 4.0 | 0.00 | 0.00 | 0.00 | 67 | 1010.5 |
| 20260502033533 | 53 | 175 | 0.0 | 4.0 | 0.00 | 0.00 | 0.00 | 68 | 1010.5 |
| 20260502033036 | 53 | 185 | 0.0 | 4.0 | 0.00 | 0.00 | 0.00 | 67 | 1010.4 |
| 20260502032532 | 53 | 187 | 0.0 | 4.0 | 0.00 | 0.00 | 0.00 | 67 | 1010.3 |
| 20260502032032 | 53 | 197 | 0.0 | 3.0 | 0.00 | 0.00 | 0.00 | 67 | 1010.5 |
| 20260502031532 | 53 | 228 | 0.0 | 2.0 | 0.00 | 0.00 | 0.00 | 67 | 1010.4 |
| 20260502031032 | 53 | 194 | 0.0 | 2.0 | 0.00 | 0.00 | 0.00 | 67 | 1010.4 |
| 20260502030531 | 53 | 172 | 0.0 | 2.0 | 0.00 | 0.00 | 0.00 | 66 | 1010.4 |
| 20260502030030 | 53 | 187 | 0.0 | 2.0 | 0.00 | 0.00 | 0.00 | 67 | 1010.3 |
| 20260502025534 | 53 | 202 | 0.0 | 1.0 | 0.00 | 0.00 | 0.00 | 66 | 1010.3 |
| 20260502025030 | 53 | 166 | 0.0 | 1.0 | 0.00 | 0.00 | 0.00 | 66 | 1010.3 |
| 20260502024532 | 53 | 200 | 0.0 | 3.0 | 0.00 | 0.00 | 0.00 | 65 | 1010.2 |
| 20260502024029 | 54 | 208 | 0.0 | 4.0 | 0.00 | 0.00 | 0.00 | 65 | 1010.2 |
| 20260502023529 | 54 | 189 | 0.0 | 4.0 | 0.00 | 0.00 | 0.00 | 64 | 1010.2 |
| 20260502023029 | 54 | 183 | 0.0 | 4.0 | 0.00 | 0.00 | 0.00 | 64 | 1010.2 |
| 20260502022529 | 54 | 190 | 0.0 | 4.0 | 0.00 | 0.00 | 0.00 | 64 | 1010.2 |
| 20260502022031 | 54 | 190 | 0.0 | 4.0 | 0.00 | 0.00 | 0.00 | 63 | 1010.2 |
| 20260502021528 | 54 | 199 | 0.0 | 4.0 | 0.00 | 0.00 | 0.00 | 63 | 1010.3 |
| 20260502021028 | 55 | 166 | 0.0 | 2.0 | 0.00 | 0.00 | 0.00 | 62 | 1010.2 |
| 20260502020528 | 55 | 193 | 0.0 | 6.0 | 0.00 | 0.00 | 0.00 | 61 | 1010.2 |
| 20260502020028 | 55 | 191 | 0.0 | 6.0 | 0.00 | 0.00 | 0.00 | 59 | 1010.3 |
| 20260502015528 | 55 | 167 | 0.0 | 2.0 | 0.00 | 0.00 | 0.00 | 58 | 1010.2 |
| 20260502015030 | 55 | 188 | 0.0 | 2.0 | 0.00 | 0.00 | 0.00 | 57 | 1010.2 |
| 20260502014531 | 55 | 192 | 0.0 | 2.0 | 0.00 | 0.00 | 0.00 | 56 | 1010.2 |
| 20260502014026 | 55 | 207 | 0.0 | 3.0 | 0.00 | 0.00 | 0.00 | 55 | 1010.2 |
| 20260502013526 | 55 | 192 | 0.0 | 3.0 | 0.00 | 0.00 | 0.00 | 55 | 1010.1 |
| 20260502013025 | 55 | 187 | 0.0 | 2.0 | 0.00 | 0.00 | 0.00 | 53 | 1010.1 |
| 20260502012525 | 55 | 205 | 0.0 | 2.0 | 0.00 | 0.00 | 0.00 | 52 | 1010.1 |
| 20260502012025 | 56 | 164 | 0.0 | 1.0 | 0.00 | 0.00 | 0.00 | 52 | 1010.0 |
| 20260502011542 | 56 | 196 | 0.0 | 0.0 | 0.00 | 0.00 | 0.00 | 52 | 1010.0 |
| 20260502011024 | 56 | 180 | 0.0 | 0.0 | 0.00 | 0.00 | 0.00 | 51 | 1009.8 |
| 20260502010523 | 56 | 195 | 0.0 | 0.0 | 0.00 | 0.00 | 0.00 | 51 | 1009.8 |
| 20260502010024 | 56 | 195 | 0.0 | 0.0 | 0.00 | 0.00 | 0.00 | 50 | 1009.8 |
| 20260502005522 | 57 | 190 | 0.0 | 1.0 | 0.00 | 0.00 | 0.00 | 52 | 1009.7 |
| 20260502005022 | 57 | 191 | 0.0 | 4.0 | 0.00 | 0.00 | 0.00 | 51 | 1009.6 |
| 20260502004524 | 57 | 203 | 0.0 | 4.0 | 0.00 | 0.00 | 0.00 | 51 | 1009.4 |
| 20260502004020 | 57 | 197 | 0.0 | 3.0 | 0.00 | 0.00 | 0.00 | 51 | 1009.3 |
| 20260502003518 | 57 | 200 | 0.0 | 2.0 | 0.00 | 0.00 | 0.00 | 50 | 1009.3 |
| 20260502003024 | 58 | 202 | 0.0 | 3.0 | 0.00 | 0.00 | 0.00 | 49 | 1009.1 |
| 20260502002518 | 58 | 181 | 1.0 | 3.0 | 0.00 | 0.00 | 0.00 | 48 | 1009.0 |
| 20260502002018 | 58 | 188 | 0.0 | 2.0 | 0.00 | 0.00 | 0.00 | 48 | 1008.9 |
| 20260502001518 | 58 | 181 | 0.0 | 2.0 | 0.00 | 0.00 | 0.00 | 47 | 1008.9 |
| 20260502001020 | 59 | 193 | 0.0 | 2.0 | 0.00 | 0.00 | 0.00 | 46 | 1008.7 |
| 20260502000518 | 59 | 199 | 0.0 | 2.0 | 0.00 | 0.00 | 0.00 | 43 | 1008.8 |
| 20260502000018 | 60 | 200 | 0.0 | 0.0 | 0.00 | 0.00 | 0.00 | 40 | 1008.6 |
| 20260501235521 | 60 | 201 | 0.0 | 0.0 | 0.00 | 0.00 | 0.00 | 38 | 1008.5 |
| 20260501235018 | 60 | 200 | 0.0 | 0.0 | 0.00 | 0.00 | 0.00 | 38 | 1008.4 |
| 20260501234517 | 61 | 200 | 0.0 | 0.0 | 0.00 | 0.00 | 0.00 | 37 | 1008.4 |
| 20260501234016 | 61 | 200 | 0.0 | 1.0 | 0.00 | 0.00 | 0.00 | 36 | 1008.3 |
| 20260501233516 | 62 | 201 | 0.0 | 1.0 | 0.00 | 0.00 | 0.00 | 36 | 1008.2 |
| 20260501233017 | 62 | 348 | 0.0 | 4.0 | 0.00 | 0.00 | 0.00 | 36 | 1008.2 |
| 20260501232518 | 62 | 346 | 0.0 | 4.0 | 0.00 | 0.00 | 0.00 | 35 | 1008.1 |
| 20260501232020 | 63 | 297 | 0.0 | 3.0 | 0.00 | 0.00 | 0.00 | 34 | 1007.9 |
| 20260501231532 | 63 | 5 | 0.0 | 4.0 | 0.00 | 0.00 | 0.00 | 35 | 1007.9 |
| 20260501231016 | 63 | 178 | 0.0 | 4.0 | 0.00 | 0.00 | 0.00 | 34 | 1007.8 |
| 20260501230516 | 63 | 4 | 0.0 | 8.0 | 0.00 | 0.00 | 0.00 | 34 | 1007.7 |
| 20260501230019 | 63 | 346 | 0.0 | 8.0 | 0.00 | 0.00 | 0.00 | 33 | 1007.7 |
| 20260501225516 | 63 | 4 | 1.0 | 6.0 | 0.00 | 0.00 | 0.00 | 33 | 1007.6 |
| 20260501225018 | 64 | 7 | 2.0 | 6.0 | 0.00 | 0.00 | 0.00 | 33 | 1007.6 |
| 20260501224515 | 64 | 198 | 0.0 | 5.0 | 0.00 | 0.00 | 0.00 | 34 | 1007.6 |
| 20260501224014 | 64 | 199 | 0.0 | 4.0 | 0.00 | 0.00 | 0.00 | 35 | 1007.6 |
| 20260501223514 | 64 | 199 | 0.0 | 7.0 | 0.00 | 0.00 | 0.00 | 33 | 1007.5 |
| 20260501223014 | 64 | 353 | 0.0 | 7.0 | 0.00 | 0.00 | 0.00 | 32 | 1007.6 |
| 20260501222514 | 64 | 345 | 2.0 | 6.0 | 0.00 | 0.00 | 0.00 | 33 | 1007.4 |
| 20260501222014 | 64 | 11 | 1.0 | 6.0 | 0.00 | 0.00 | 0.00 | 32 | 1007.3 |
| 20260501221513 | 64 | 1 | 1.0 | 9.0 | 0.00 | 0.00 | 0.00 | 32 | 1007.3 |
| 20260501221013 | 65 | 8 | 3.0 | 9.0 | 0.00 | 0.00 | 0.00 | 32 | 1007.3 |
| 20260501220513 | 65 | 350 | 3.0 | 8.0 | 0.00 | 0.00 | 0.00 | 34 | 1007.4 |
| 20260501220013 | 65 | 209 | 1.0 | 8.0 | 0.00 | 0.00 | 0.00 | 32 | 1007.3 |
| 20260501215513 | 65 | 182 | 0.0 | 7.0 | 0.00 | 0.00 | 0.00 | 34 | 1007.3 |
| 20260501215013 | 65 | 263 | 1.0 | 7.0 | 0.00 | 0.00 | 0.00 | 32 | 1007.3 |
| 20260501214515 | 65 | 168 | 0.0 | 5.0 | 0.00 | 0.00 | 0.00 | 33 | 1007.2 |
| 20260501214015 | 65 | 252 | 1.0 | 5.0 | 0.00 | 0.00 | 0.00 | 34 | 1007.3 |
| 20260501213514 | 65 | 5 | 0.0 | 5.0 | 0.00 | 0.00 | 0.00 | 34 | 1007.1 |
| 20260501213018 | 65 | 3 | 1.0 | 5.0 | 0.00 | 0.00 | 0.00 | 33 | 1007.1 |
| 20260501212511 | 65 | 189 | 1.0 | 4.0 | 0.00 | 0.00 | 0.00 | 34 | 1007.1 |
| 20260501212011 | 65 | 356 | 0.0 | 4.0 | 0.00 | 0.00 | 0.00 | 35 | 1007.0 |
| 20260501211511 | 65 | 5 | 0.0 | 4.0 | 0.00 | 0.00 | 0.00 | 34 | 1007.0 |
| 20260501211010 | 65 | 5 | 1.0 | 4.0 | 0.00 | 0.00 | 0.00 | 34 | 1007.1 |
| 20260501210510 | 66 | 5 | 1.0 | 4.0 | 0.00 | 0.00 | 0.00 | 35 | 1007.1 |
| 20260501210010 | 66 | 221 | 0.0 | 5.0 | 0.00 | 0.00 | 0.00 | 35 | 1007.0 |
| 20260501205510 | 66 | 211 | 1.0 | 7.0 | 0.00 | 0.00 | 0.00 | 33 | 1007.0 |
| 20260501205011 | 66 | 212 | 1.0 | 8.0 | 0.00 | 0.00 | 0.00 | 35 | 1007.0 |
| 20260501204509 | 66 | 353 | 1.0 | 8.0 | 0.00 | 0.00 | 0.00 | 34 | 1006.9 |
| 20260501204007 | 67 | 3 | 1.0 | 6.0 | 0.00 | 0.00 | 0.00 | 33 | 1007.0 |
| 20260501203506 | 68 | 8 | 1.0 | 6.0 | 0.00 | 0.00 | 0.00 | 32 | 1006.9 |
| 20260501203006 | 68 | 161 | 0.0 | 6.0 | 0.00 | 0.00 | 0.00 | 33 | 1007.1 |
| 20260501202510 | 68 | 344 | 2.0 | 8.0 | 0.00 | 0.00 | 0.00 | 33 | 1007.0 |
| 20260501202006 | 68 | 203 | 2.0 | 8.0 | 0.00 | 0.00 | 0.00 | 33 | 1007.0 |
| 20260501201505 | 68 | 185 | 3.0 | 7.0 | 0.00 | 0.00 | 0.00 | 32 | 1007.0 |
| 20260501201004 | 68 | 188 | 0.0 | 7.0 | 0.00 | 0.00 | 0.00 | 35 | 1007.1 |
| 20260501200506 | 68 | 109 | 2.0 | 7.0 | 0.00 | 0.00 | 0.00 | 31 | 1007.1 |
| 20260501200003 | 68 | 356 | 3.0 | 7.0 | 0.00 | 0.00 | 0.00 | 35 | 1007.1 |
| 20260501195503 | 67 | 15 | 2.0 | 7.0 | 0.00 | 0.00 | 0.00 | 34 | 1007.1 |
| 20260501195003 | 67 | 359 | 0.0 | 7.0 | 0.00 | 0.00 | 0.00 | 36 | 1007.1 |
| 20260501194504 | 67 | 6 | 1.0 | 7.0 | 0.00 | 0.00 | 0.00 | 34 | 1007.1 |
| 20260501194002 | 67 | 291 | 1.0 | 7.0 | 0.00 | 0.00 | 0.00 | 36 | 1007.2 |
| 20260501193501 | 67 | 195 | 1.0 | 7.0 | 0.00 | 0.00 | 0.00 | 37 | 1007.3 |
| 20260501193100 | 67 | 358 | 0.0 | 7.0 | 0.00 | 0.00 | 0.00 | 37 | 1007.3 |
| 20260501192601 | 67 | 155 | 1.0 | 10.0 | 0.00 | 0.00 | 0.00 | 37 | 1007.3 |
| 20260501192100 | 66 | 195 | 2.0 | 10.0 | 0.00 | 0.00 | 0.00 | 37 | 1007.4 |
| 20260501191600 | 67 | 344 | 1.0 | 9.0 | 0.00 | 0.00 | 0.00 | 37 | 1007.6 |
| 20260501191101 | 66 | 218 | 2.0 | 9.0 | 0.00 | 0.00 | 0.00 | 39 | 1007.6 |
| 20260501190558 | 67 | 83 | 1.0 | 5.0 | 0.00 | 0.00 | 0.00 | 37 | 1007.5 |
| 20260501190115 | 66 | 266 | 0.0 | 9.0 | 0.00 | 0.00 | 0.00 | 37 | 1007.5 |
| 20260501185557 | 65 | 275 | 1.0 | 10.0 | 0.00 | 0.00 | 0.00 | 39 | 1007.6 |
| 20260501185058 | 65 | 134 | 3.0 | 10.0 | 0.00 | 0.00 | 0.00 | 36 | 1007.7 |
| 20260501184558 | 65 | 360 | 2.0 | 9.0 | 0.00 | 0.00 | 0.00 | 36 | 1007.7 |
| 20260501184056 | 66 | 4 | 2.0 | 9.0 | 0.00 | 0.00 | 0.00 | 37 | 1007.8 |
| 20260501183559 | 66 | 215 | 1.0 | 8.0 | 0.00 | 0.00 | 0.00 | 39 | 1007.7 |
| 20260501183100 | 65 | 349 | 2.0 | 8.0 | 0.00 | 0.00 | 0.00 | 40 | 1007.8 |
| 20260501182554 | 65 | 16 | 1.0 | 8.0 | 0.00 | 0.00 | 0.00 | 44 | 1007.8 |
| 20260501182053 | 64 | 356 | 2.0 | 12.0 | 0.00 | 0.00 | 0.00 | 39 | 1007.8 |
| 20260501181552 | 64 | 353 | 3.0 | 12.0 | 0.00 | 0.00 | 0.00 | 40 | 1007.8 |
| 20260501181050 | 63 | 221 | 1.0 | 9.0 | 0.00 | 0.00 | 0.00 | 42 | 1007.8 |
| 20260501180550 | 63 | 357 | 1.0 | 9.0 | 0.00 | 0.00 | 0.00 | 41 | 1007.9 |
| 20260501180049 | 62 | 164 | 2.0 | 8.0 | 0.00 | 0.00 | 0.00 | 43 | 1007.9 |